DECAYED

STARLINK-4698, 53713 (Decayed)

Orbit data source: Space-Track

STARLINK-4698, 53713 was a payload satellite owned by SpaceX/Seattle (US) in LEO that was launched on Mon, 05 Sep 2022 UTC via an FALCON 9 launch vehicle from the Air Force Eastern Test Range (AFETR). Payload-class satellites include a variety of spacecraft equipped with specific instruments for various scientific and technological missions. These include communications satellites like Starlink; space stations such as the ISS; scientific satellites like the Hubble; Earth observation satellites from companies like Planet Labs, Umbra, and HawkEye 360; GPS; miniature CubeSats for education and research; and military/defense satellites.

Not visible in the next 10 days
Identifier
53713, 2022-107P
Orbit
Decayed
Country
Flag of USUS
Related business
Manufacturer
SpaceX/Seattle
Mission
Decayed Commercial Communications
Bus & Motor
STARLINK, Unknown motor
Mass
305 kg wet, ~290 kg dry
Launch date (UTC)
2022-09-05 (4 years ago)
Launch vehicle
FALCON 9
Launch site
Air Force Eastern Test Range (AFETR)
Object type
Payload
Rocket body
Debris
Shape & HBR
Box + 1 Pan, 10.1 m
Radar Cross Section
13.562 m², Large (>1 m²)

Expand to show TLE details & history
Last TLE update: 10 months ago

TLE from 10 months ago
0 STARLINK-4698
1 53713U 22107P   25242.45979550  .10794139  12377-4  11483-2 0  9997
2 53713  53.1744 302.2423 0007642 338.0874  21.9845 16.36679858166802
Epoch: 2025-08-30T11:02Z
TLE epoch observation values (Epoch: 2025-08-30T11:02:06.331Z)
Latitude
-0.00001°
Longitude
157.82214°
Altitude
170.949 km
Speed
7.808 km/s
True Right ascension
20h 08m 58s
True Declination
0° 00' 00"
Sunlit
Object was in full shadow at epoch
Visualization orbit readout
Latitude
Unknown
Longitude
Unknown
Altitude
Unknown
Speed
Unknown
Apparent Right ascension
Unknown
Apparent Declination
Unknown
Sunlit
N/A
Visualization observer readout
Local Sidereal Time
21:29:41
Azimuth
Unknown
Elevation
Unknown
Doppler factor
Unknown
Orbital elements
Apogee altitude
179.923 km
Perigee altitude
169.907 km
Semi-major axis
6,553.052 km
Eccentricity
0.00076
Inclination
53.1744°
RAAN
302.2423°
Arg. of periapsis
338.0874°
True anomaly
22.01731°
Mean anomaly
21.9845°
Eccentric anomaly
22.0009°
Mean motion
4.09145 °/min
Orbital period
87.99 mins
BSTAR
0.0011483
Loading maneuver chart data...
Computing Atmospheric mass density...
Loading historical data...
Loading historical data...
Loading historical data...
Loading historical data...
Loading historical data...
Loading historical data...
Loading historical data...

Documentation

Showing up to 5 results
|